Weather History for KPRC - March, 2013

Change the Weather History Date:

Tuesday, March 19, 2013

  Actual Average Record
Temperature  
Mean Temperature 58 °F 47 °F  
Max Temperature 69 °F 61 °F 77 °F (1997)
Min Temperature 48 °F 33 °F 19 °F (1977)
Degree Days  
Heating Degree Days 6    
Month to date heating degree days  
Since 1 July heating degree days  
Cooling Degree Days 0    
Month to date cooling degree days  
Year to date cooling degree days  
Growing Degree Days 8 (Base 50)    
Moisture  
Dew Point 23 °F    
Average Humidity 27    
Maximum Humidity 43    
Minimum Humidity 14    
Precipitation  
Precipitation 0.00 in 0.03 in 0.97 in (1985)
Month to date precipitation 0.72  
Year to date precipitation 3.23  
Sea Level Pressure  
Sea Level Pressure 29.92 in    
Wind  
Wind Speed 5 mph (South)    
Max Wind Speed 9 mph    
Max Gust Speed -    
Visibility 10 miles    
Events      
T = Trace of Precipitation, MM = Missing Value Source: NWS Daily Summary

Daily Weather History Graph

Daily Weather History Graph

Search for Another Location

Airport or City:

Trip Planner

Search our weather history database for the weather conditions in past years. The results will help you decide how hot, cold, wet, or windy it might be!

Date:

Astronomy

Mar. 19, 2013 Rise Set
Actual Time 6:34 AM MST 6:40 PM MST
Civil Twilight 6:09 AM MST 7:06 PM MST
Nautical Twilight 5:39 AM MST 7:35 PM MST
Astronomical Twilight 5:10 AM MST 8:05 PM MST
Moon 11:41 AM MST (3/19) 1:17 AM MST (3/19)
Length of Visible Light 12h 56m
Length of Day
12h 06m
Waxing Crescent, 51% of the Moon is Illuminated
Mar 19
Waxing Crescent
Mar 27
Full
Apr 2
Last Quarter
Apr 10
New
Apr 18
First Quarter

Hourly Weather History & Observations

Time (MST) Temp. Dew Point Humidity Pressure Visibility Wind Dir Wind Speed Gust Speed Precip Events Conditions
12:53 AM 51.1 °F 24.1 °F 35% 29.88 in 10.0 mi South 8.1 mph - N/A   Clear
1:53 AM 50.0 °F 24.1 °F 36% 29.88 in 10.0 mi South 6.9 mph - N/A   Clear
2:53 AM 48.9 °F 26.1 °F 41% 29.87 in 10.0 mi South 4.6 mph - N/A   Partly Cloudy
3:53 AM 48.9 °F 24.1 °F 38% 29.85 in 10.0 mi South 5.8 mph - N/A   Clear
4:53 AM 50.0 °F 21.9 °F 33% 29.85 in 10.0 mi South 6.9 mph - N/A   Clear
5:53 AM 50.0 °F 25.0 °F 38% 29.88 in 10.0 mi South 5.8 mph - N/A   Overcast
6:53 AM 51.1 °F 23.0 °F 33% 29.91 in 10.0 mi South 3.5 mph - N/A   Mostly Cloudy
7:53 AM 53.1 °F 24.1 °F 32% 29.93 in 10.0 mi SSE 3.5 mph - N/A   Overcast
8:53 AM 59.0 °F 25.0 °F 27% 29.93 in 10.0 mi NE 3.5 mph - N/A   Partly Cloudy
9:53 AM 61.0 °F 21.9 °F 22% 29.94 in 10.0 mi Variable 5.8 mph - N/A   Clear
10:53 AM 64.0 °F 19.9 °F 18% 29.93 in 10.0 mi ENE 4.6 mph - N/A   Clear
11:53 AM 64.9 °F 19.0 °F 17% 29.93 in 10.0 mi North 6.9 mph - N/A   Scattered Clouds
12:53 PM 66.9 °F 19.0 °F 16% 29.91 in 10.0 mi Calm Calm - N/A   Scattered Clouds
1:53 PM 69.1 °F 17.1 °F 14% 29.89 in 10.0 mi West 5.8 mph - N/A   Scattered Clouds
2:53 PM 64.9 °F 17.1 °F 16% 29.90 in 10.0 mi SSE 3.5 mph - N/A   Scattered Clouds
3:53 PM 68.0 °F 19.0 °F 15% 29.89 in 10.0 mi SSE 5.8 mph - N/A   Mostly Cloudy
4:53 PM 69.1 °F 17.1 °F 14% 29.89 in 10.0 mi Variable 5.8 mph - N/A   Overcast
5:53 PM 66.9 °F 17.1 °F 15% 29.90 in 10.0 mi Calm Calm - N/A   Partly Cloudy
6:53 PM 61.0 °F 23.0 °F 23% 29.94 in 10.0 mi WSW 5.8 mph - N/A   Clear
7:53 PM 59.0 °F 24.1 °F 26% 29.98 in 10.0 mi Calm Calm - N/A   Clear
8:53 PM 55.9 °F 25.0 °F 30% 29.98 in 10.0 mi Calm Calm - N/A   Clear
9:53 PM 54.0 °F 28.0 °F 37% 29.99 in 10.0 mi SSW 9.2 mph - N/A   Clear
10:53 PM 50.0 °F 28.0 °F 43% 30.02 in 10.0 mi Calm Calm - N/A   Clear
11:53 PM 51.1 °F 28.0 °F 41% 30.02 in 10.0 mi Calm Calm - N/A   Clear